Theta_e
316 315 315 316 316 316 316 317 317 317 317 317 316 314 311 310 308 307 308 307 308 308 307 307 307 307 307 306 308 309 310 312 315 316 316 318 316 317 319 314 314 312 311 311 310 312 312 313 313 313 316 317 318 319 315 320 328 328 331 328 321 322 319 316 320 320 320 319 317 315 317 318 316 316 314 313 316 316 318 320 320 327 329 328 329 325 327 330
316 315 315 316 316 316 316 316 317 316 316 316 315 313 312 311 310 309 309 308 307 307 307 307 307 307 307 307 309 309 311 312 315 316 315 319 318 316 316 313 312 312 311 311 311 313 314 314 312 314 320 318 317 319 318 318 321 328 335 328 324 331 320 313 318 317 317 316 316 316 316 317 316 316 314 314 315 316 318 317 322 338 334 327 329 329 330 330
316 315 314 315 316 316 316 316 316 316 316 316 314 313 312 311 311 310 309 308 307 307 307 307 307 307 307 307 309 311 313 313 315 316 314 319 319 314 313 313 313 312 312 312 313 314 315 315 311 314 320 317 317 319 322 320 317 328 336 327 328 333 320 314 316 316 318 315 316 316 314 316 315 314 314 315 316 316 320 319 320 333 339 332 329 329 330 330
317 316 314 315 315 315 315 315 315 316 316 315 313 313 312 311 311 310 309 308 307 307 307 307 307 307 307 308 310 312 315 314 316 318 316 318 317 313 313 313 314 314 313 313 315 315 314 314 311 315 318 316 318 318 322 322 315 320 328 328 326 322 317 316 315 317 317 313 315 316 314 315 314 314 313 315 316 315 318 319 320 324 338 333 328 328 329 330
317 316 314 314 315 315 315 314 314 315 315 314 314 313 311 309 310 310 309 308 308 307 308 307 307 307 307 308 311 314 314 310 314 319 318 316 315 313 315 315 315 315 313 313 315 314 314 313 312 317 318 316 318 316 317 319 318 317 318 322 321 316 316 316 316 318 315 312 316 315 315 315 314 314 315 316 316 318 317 316 320 320 332 333 328 327 328 328
317 316 314 313 314 315 314 314 314 314 315 314 314 313 310 308 309 309 309 308 307 307 307 307 307 307 308 309 311 315 314 309 314 317 315 314 314 314 315 315 315 315 314 314 314 314 315 314 314 318 318 317 317 315 315 315 317 319 315 316 318 316 316 316 316 318 316 315 317 316 315 315 316 316 316 316 315 321 320 316 318 314 323 330 328 326 328 327
317 316 315 313 314 314 314 313 313 314 314 314 314 313 310 308 308 308 308 308 307 307 307 307 307 307 310 310 311 316 317 315 316 316 313 313 314 315 315 315 315 315 315 314 314 316 317 316 316 319 319 317 315 315 316 315 318 323 318 315 316 315 317 316 315 318 318 318 317 315 315 315 318 316 314 315 317 322 318 315 313 308 317 327 327 326 326 326
317 316 315 313 313 313 313 313 313 313 313 313 314 313 310 308 308 307 307 308 307 307 307 307 308 308 311 312 314 318 317 317 317 314 313 313 314 315 315 315 315 315 316 315 316 317 316 316 315 317 318 317 316 315 315 314 318 322 318 316 317 316 316 316 316 319 319 318 316 315 315 316 317 315 314 317 320 322 316 315 314 311 320 327 329 328 325 324
317 316 315 314 312 312 313 313 312 313 312 312 313 312 311 308 307 307 307 307 307 307 307 308 308 309 312 314 316 316 314 317 317 313 312 313 315 315 316 315 315 316 316 315 315 315 315 317 317 316 317 316 315 316 316 314 315 318 318 317 317 316 315 315 316 319 318 318 315 315 316 316 316 314 316 321 321 319 317 320 321 320 328 329 328 328 323 323
317 316 315 314 312 311 312 312 312 312 312 312 312 312 311 309 308 307 306 306 306 307 307 308 309 310 312 314 313 312 315 318 315 312 313 314 315 316 317 316 316 317 316 316 315 314 316 318 318 316 317 316 316 316 316 314 314 317 318 317 317 316 315 316 316 317 318 318 316 317 317 316 316 315 318 322 318 316 320 323 320 323 333 326 324 326 322 322
316 316 315 314 313 311 311 311 311 311 312 312 312 311 311 309 308 306 306 306 306 307 308 308 310 311 312 313 312 311 317 318 313 312 313 313 316 316 316 315 316 317 316 316 315 315 317 316 315 315 316 315 317 317 315 315 315 316 318 317 317 317 315 315 316 316 316 316 316 318 317 316 316 316 321 319 315 315 320 324 321 324 330 322 321 323 320 319
316 316 315 314 314 313 311 310 310 310 312 312 311 310 310 309 308 306 306 306 306 307 308 309 310 313 313 312 313 315 317 317 313 313 312 313 315 315 315 315 317 317 316 315 315 316 316 316 315 316 317 316 317 317 316 316 316 317 321 320 317 319 320 316 316 316 316 316 317 317 315 317 317 319 322 318 316 317 318 322 322 323 324 320 319 320 318 317
316 316 315 315 315 314 312 311 311 310 311 311 310 309 309 309 307 307 306 306 307 307 309 310 310 315 314 310 314 317 317 316 313 312 313 314 315 315 315 315 316 316 316 315 315 315 315 316 317 317 317 318 318 314 315 317 316 317 319 322 321 321 322 317 315 316 315 316 317 314 313 320 322 319 319 316 315 317 316 320 319 319 320 318 317 317 319 315
316 316 316 315 314 314 313 312 312 311 310 311 310 308 309 308 307 307 306 307 307 308 310 311 311 315 313 309 314 317 317 315 313 313 315 315 315 315 314 315 315 315 315 315 314 315 317 315 315 317 316 318 317 313 318 318 318 318 314 323 326 319 321 321 316 316 315 315 316 313 313 321 323 320 317 315 315 317 319 321 319 318 317 317 317 316 317 315
316 316 315 315 314 313 313 312 312 311 310 310 309 309 309 308 307 306 306 308 308 310 310 311 313 313 310 311 315 316 315 314 313 314 315 315 315 314 314 315 314 314 315 315 315 316 316 316 316 319 316 316 317 316 322 321 323 324 315 322 324 316 322 325 317 317 317 315 315 315 316 320 321 321 320 316 316 318 320 324 322 320 318 318 319 317 317 314
316 315 315 315 314 313 313 312 312 311 310 309 308 309 308 307 307 306 307 309 310 311 311 313 316 312 310 313 315 315 314 313 314 315 316 316 315 315 314 314 314 315 316 315 317 316 315 318 317 317 318 317 319 322 325 322 326 328 320 322 323 316 320 322 318 318 319 318 316 314 317 321 320 319 319 317 318 318 320 324 323 322 319 317 317 317 317 316
316 315 315 314 314 313 313 312 312 311 309 309 309 309 309 309 309 307 309 311 312 313 313 315 316 312 309 311 315 316 315 314 314 315 316 316 316 315 314 315 314 314 315 315 316 315 314 318 315 315 319 318 321 324 320 317 320 322 320 320 323 321 319 320 321 318 318 318 317 316 316 320 321 319 320 319 317 318 320 323 323 322 319 317 316 316 317 317
316 315 314 314 313 313 313 312 312 310 309 309 309 310 312 312 312 311 313 314 313 312 312 313 311 310 310 311 315 317 315 314 314 315 316 316 316 315 316 315 313 313 317 317 316 315 316 319 320 321 319 316 319 322 320 320 320 319 319 319 319 319 318 320 322 318 317 317 317 318 317 320 321 319 319 317 314 317 321 322 321 320 318 317 315 316 316 316
316 315 314 314 313 313 312 311 311 310 308 309 311 313 314 314 313 313 314 314 312 308 310 311 309 311 312 312 316 316 315 315 314 314 316 316 315 315 316 314 316 317 317 319 315 315 321 322 320 320 318 317 318 320 325 327 325 322 325 328 325 321 318 319 320 316 316 317 319 319 318 319 320 318 318 316 312 313 317 318 317 316 316 315 314 315 315 316
316 315 314 313 313 312 311 311 311 309 308 310 313 312 312 314 314 314 315 316 313 310 312 312 311 316 317 316 318 316 315 314 314 315 315 315 315 316 315 315 322 323 319 322 317 316 325 324 319 320 318 317 319 321 324 323 323 323 324 328 327 322 318 317 319 318 316 317 320 320 318 318 317 316 317 314 312 312 314 314 314 314 314 313 314 314 315 316
316 315 314 312 312 312 311 311 310 308 309 311 312 313 314 313 313 313 314 315 311 309 313 314 313 317 318 316 316 314 315 316 314 315 315 315 316 316 316 317 322 321 319 324 321 320 326 321 319 326 323 318 318 319 319 316 320 324 325 327 324 320 317 316 317 320 316 316 321 320 318 319 317 316 316 314 313 315 315 314 313 313 313 312 313 314 315 315
315 314 313 312 312 312 311 310 309 309 310 311 312 315 317 313 311 311 310 309 307 307 312 313 314 317 315 314 314 314 317 319 316 316 315 315 316 315 318 320 322 321 318 319 321 323 325 321 322 329 323 316 315 316 318 321 327 330 327 324 321 318 317 317 319 322 320 318 324 324 320 320 317 315 316 314 314 314 313 313 314 314 313 312 313 314 315 315
315 314 313 312 312 311 310 309 309 309 311 312 312 314 316 313 311 310 308 308 306 309 313 315 318 320 315 314 315 314 316 318 318 317 315 315 316 317 319 319 321 321 317 319 323 321 319 321 324 324 318 315 316 318 320 322 326 330 327 320 320 321 319 318 320 321 319 316 321 324 321 319 317 318 320 317 314 314 313 313 313 314 314 314 313 314 316 318
315 313 312 312 311 310 309 309 309 310 311 311 312 314 316 315 313 311 310 309 308 311 313 314 318 320 317 314 315 315 315 316 318 316 314 315 316 316 318 319 320 321 318 320 322 320 320 319 318 318 320 322 319 318 323 321 316 324 336 333 325 324 322 321 322 320 317 316 320 320 317 324 328 328 332 329 322 319 317 316 317 316 313 313 314 316 319 320
314 312 312 311 310 310 309 309 310 310 311 311 312 315 316 315 313 311 312 312 310 312 310 310 315 318 317 314 315 317 316 316 318 316 313 315 316 316 316 316 318 320 319 319 319 320 320 316 315 318 323 328 323 320 326 327 316 316 330 333 326 328 328 327 328 324 318 316 318 316 314 328 338 331 330 334 331 327 326 325 329 327 315 312 316 317 319 322
312 312 311 311 310 309 309 310 310 310 311 310 311 315 316 315 312 312 315 315 314 313 309 309 312 314 314 315 317 318 316 315 315 314 314 314 314 315 316 315 317 319 317 317 319 319 318 317 320 324 328 329 325 322 321 325 321 312 317 325 329 335 333 329 325 319 318 315 314 315 314 321 328 323 321 323 320 319 320 322 329 330 320 317 321 321 321 320
312 311 311 310 309 309 309 310 309 310 312 311 311 314 315 314 312 312 316 316 314 313 309 309 309 311 314 315 315 315 315 316 314 313 315 314 313 313 316 316 315 316 317 318 319 318 318 321 322 326 334 329 322 321 318 322 323 313 318 326 332 332 331 333 327 319 322 319 319 324 322 319 323 323 319 315 314 315 316 319 322 322 321 324 327 328 325 320
311 311 310 309 308 310 310 310 309 310 312 310 311 314 315 314 311 312 316 314 312 311 309 308 308 311 315 312 313 314 314 316 317 315 313 313 313 313 318 319 317 318 317 317 320 317 318 324 323 326 333 328 323 324 321 326 327 319 320 327 330 330 333 339 335 329 325 317 321 329 320 317 327 331 323 315 316 320 321 322 320 318 322 326 328 330 329 325
311 310 310 308 308 310 311 311 309 309 311 312 313 315 315 312 309 312 314 310 311 311 309 309 309 313 316 312 312 315 314 316 319 317 313 313 313 312 316 317 318 321 317 318 324 320 317 320 322 325 327 324 324 323 322 329 329 321 321 326 328 331 334 335 332 329 324 316 323 330 319 315 323 330 324 314 318 325 322 319 317 318 323 325 327 331 330 330
310 310 309 308 309 310 312 311 309 310 313 314 314 314 312 312 310 310 309 309 313 313 309 310 310 314 316 313 312 314 316 318 318 316 315 316 315 314 314 313 317 325 324 325 327 323 318 315 316 319 320 323 323 320 321 325 321 320 326 331 329 331 334 336 335 328 318 318 328 330 320 314 317 328 327 317 321 324 318 319 321 324 330 330 331 332 330 334
310 310 309 309 309 309 312 312 310 312 314 315 316 312 311 315 315 309 307 311 317 315 310 311 312 315 315 313 314 315 318 319 317 316 316 317 317 317 315 313 318 324 323 325 325 322 319 316 317 317 317 321 324 321 320 323 323 323 331 332 325 328 332 334 334 327 317 322 330 329 322 314 314 326 327 320 323 321 318 323 326 330 335 334 333 330 328 331
310 311 310 309 309 309 312 312 311 313 314 315 315 311 310 314 313 311 311 312 315 316 313 313 313 315 314 312 315 317 320 321 316 316 319 319 319 317 317 318 321 319 317 322 324 320 320 321 319 317 316 319 327 327 321 324 330 326 326 326 318 321 325 325 329 327 322 322 320 322 323 317 316 322 322 321 322 321 322 322 325 332 334 330 332 333 331 329
311 310 310 309 310 310 311 313 313 314 314 313 313 312 314 314 310 311 313 312 314 315 315 314 314 315 314 313 316 317 319 320 316 316 317 320 319 316 318 319 319 320 320 323 324 320 322 326 320 316 318 318 322 325 321 323 327 322 320 322 319 321 320 322 327 322 321 323 318 318 321 320 322 321 321 324 318 318 323 320 323 329 327 328 333 334 333 329
311 310 310 310 310 310 312 313 313 314 313 312 312 312 314 314 310 311 311 312 316 315 315 316 315 314 314 312 314 316 317 317 316 317 317 318 318 317 318 316 316 325 327 322 322 321 320 325 323 319 321 320 318 321 325 325 323 321 320 318 318 324 324 323 326 321 320 324 319 316 320 327 327 318 319 322 319 322 326 322 324 323 323 331 331 327 330 333
312 310 310 310 310 311 312 312 313 313 312 312 311 310 311 311 311 311 309 312 318 317 315 316 314 313 314 313 314 315 317 318 316 316 318 318 318 318 318 314 316 325 326 317 318 320 317 320 323 320 318 320 320 320 324 324 320 320 319 315 316 322 325 321 319 322 323 323 321 319 323 330 324 317 317 317 318 327 328 324 324 322 322 330 332 328 329 335
312 311 311 311 311 311 311 312 312 312 312 312 310 310 311 309 310 312 311 315 320 317 315 315 314 314 313 313 315 314 315 320 318 316 317 316 316 316 316 315 315 318 319 318 321 320 317 318 320 317 317 319 319 319 320 321 320 319 318 322 322 319 325 323 314 316 318 317 320 319 322 324 317 315 320 316 315 323 325 323 322 322 323 322 329 334 333 335
313 312 312 312 311 311 310 311 311 312 314 312 309 311 310 308 312 315 314 316 318 315 315 315 315 315 313 314 317 315 315 320 318 316 317 316 315 316 315 315 315 314 315 319 321 320 322 322 318 317 318 316 314 317 320 319 320 321 322 325 320 314 322 326 319 320 320 318 321 318 317 320 315 317 324 319 313 318 322 323 322 324 324 318 322 333 338 336
314 313 314 313 312 312 311 311 311 313 316 313 310 312 311 309 312 317 317 315 315 315 317 317 316 315 314 314 315 314 315 318 317 317 317 315 316 317 315 315 316 314 313 315 316 317 321 321 317 316 319 317 315 318 321 318 316 321 323 321 320 320 323 322 319 322 321 318 323 322 316 315 315 318 321 316 315 320 321 321 322 322 322 319 319 325 334 332
315 315 316 315 314 313 312 312 311 314 317 314 310 312 312 309 310 316 319 314 314 316 316 319 319 315 314 315 315 314 314 316 316 317 317 314 316 316 313 314 316 315 313 314 314 316 318 316 316 315 316 317 318 319 322 322 317 318 319 316 320 325 325 323 319 319 320 318 321 323 319 317 319 320 319 315 317 320 317 318 320 318 318 319 315 319 328 329
314 315 316 315 314 314 313 312 313 315 316 314 310 310 312 311 308 313 318 316 315 316 317 321 320 316 316 316 315 314 315 316 316 316 316 314 314 315 313 313 316 316 313 312 313 316 316 312 314 316 314 317 320 320 320 322 320 320 320 319 320 320 320 323 321 319 322 324 323 321 317 323 327 321 318 318 318 318 317 318 320 319 318 320 319 324 327 326
313 314 315 314 314 314 313 313 314 315 316 314 311 311 313 313 309 311 317 317 315 316 320 323 320 317 319 317 316 316 316 317 316 315 315 314 313 314 314 313 316 316 313 312 313 317 316 313 318 321 319 320 322 319 317 319 320 319 319 320 320 320 320 320 319 318 319 321 324 321 315 322 329 322 319 322 322 322 320 318 322 325 325 328 331 330 324 324
312 313 313 314 314 313 314 314 314 314 315 314 313 312 314 316 316 315 314 314 315 316 319 321 319 317 318 316 316 317 317 317 317 316 316 315 314 315 315 316 317 314 314 313 313 316 319 321 325 324 322 322 319 315 315 318 318 317 318 320 320 319 320 320 323 323 320 317 320 321 319 318 320 321 324 326 325 325 325 324 326 330 333 338 339 334 327 325
312 312 313 313 314 314 314 314 313 313 313 313 313 313 314 317 319 318 315 314 314 315 317 318 317 316 317 318 318 317 316 316 316 316 317 315 314 316 317 317 317 314 313 314 313 315 319 322 322 320 321 324 322 318 317 317 317 317 319 321 321 321 322 327 331 327 323 322 319 320 320 317 319 325 329 328 326 323 322 324 327 328 330 338 341 337 332 330
312 312 313 313 313 314 313 312 312 313 312 312 312 312 313 316 318 317 318 318 317 317 317 316 316 316 319 322 320 316 315 316 316 316 317 318 316 317 319 318 316 314 314 315 315 314 316 319 320 319 320 323 325 323 320 317 317 320 324 323 322 324 324 324 324 319 319 326 324 321 319 318 323 328 327 330 333 325 320 322 326 325 324 331 337 336 336 339
312 312 312 312 313 314 313 311 310 311 312 311 311 312 312 314 315 314 318 320 319 319 318 317 319 318 319 320 317 316 316 318 320 317 316 319 318 317 321 321 317 314 314 316 315 313 317 319 318 318 317 317 320 320 320 320 319 321 327 325 320 322 322 319 320 319 319 323 322 319 316 316 321 324 322 327 331 325 323 326 324 322 323 328 332 333 334 337
311 311 311 311 311 312 311 310 309 309 310 311 311 312 312 312 313 312 314 317 317 318 318 320 320 316 317 319 317 317 317 317 321 320 317 319 320 319 320 321 318 315 317 319 316 316 324 322 315 314 315 314 314 316 320 324 322 320 324 323 318 319 319 318 320 321 319 320 320 318 316 316 317 318 318 323 327 327 330 331 325 321 323 325 327 328 327 328
309 311 311 310 310 308 307 308 309 308 309 311 311 312 312 312 313 313 313 314 316 317 318 320 319 315 316 319 318 318 318 316 318 320 318 317 319 320 318 318 318 317 319 320 316 319 326 321 315 315 315 313 313 316 321 322 320 320 320 320 319 318 318 319 320 319 318 319 319 317 316 316 315 315 315 317 322 328 332 333 327 322 323 327 329 329 327 325
307 309 310 310 311 309 307 308 309 308 308 310 311 312 312 312 312 313 314 314 315 316 316 318 319 319 319 318 318 319 319 317 316 318 318 317 318 320 318 316 317 317 319 317 314 319 323 319 317 317 315 315 314 317 321 320 318 319 318 319 320 318 317 318 318 318 318 318 318 316 317 318 315 313 314 314 315 319 323 326 322 318 322 329 329 325 324 324
306 307 308 309 311 309 308 309 309 308 308 309 310 311 311 312 312 312 314 315 315 315 316 318 319 320 321 319 318 318 319 318 317 317 318 318 320 322 321 319 318 317 319 317 315 317 320 322 323 318 314 316 316 317 321 319 317 319 318 318 319 318 317 317 316 317 316 317 317 316 317 317 314 313 315 314 314 314 317 321 319 319 323 325 323 322 323 323
305 306 307 309 310 309 309 308 309 309 309 308 310 310 310 311 312 311 312 314 315 315 316 317 317 319 320 319 318 318 318 318 317 317 318 318 319 321 322 323 322 319 318 317 315 314 316 323 324 318 316 317 315 316 318 318 318 319 318 317 317 317 317 316 316 317 316 316 316 316 317 315 314 315 317 316 317 316 316 319 322 323 322 321 320 320 320 320
302 303 304 307 310 310 310 309 308 309 309 308 309 310 310 311 312 311 312 313 314 315 315 315 316 317 318 317 318 319 320 320 320 320 319 318 318 319 319 322 324 322 319 318 318 316 316 321 321 318 318 318 316 317 317 316 317 317 318 318 316 316 317 316 317 317 316 317 317 317 317 315 315 318 317 317 320 320 320 323 324 322 319 318 318 317 316 315
300 302 303 305 308 309 311 311 309 309 310 309 308 310 310 310 311 312 313 313 313 314 315 314 316 317 318 318 318 318 320 320 320 318 318 319 321 321 321 322 320 319 319 319 320 320 318 319 321 320 319 317 318 320 318 317 317 317 317 317 315 315 315 315 316 316 316 317 317 317 317 314 316 320 318 318 322 323 323 322 321 320 318 317 317 315 313 312
Wind_Speed
16 13 14 13 12 12 11 10 9 8 8 6 7 8 11 12 14 15 15 15 14 13 13 13 11 10 9 8 6 5 4 4 4 6 5 6 8 6 6 8 6 5 4 3 3 3 2 1 2 2 3 2 2 1 2 2 2 4 3 3 1 3 3 4 6 6 4 5 7 6 5 8 4 2 1 2 6 4 3 5 3 4 6 4 2 9 26 30
16 14 13 13 12 12 11 11 9 8 8 6 7 9 10 11 12 13 14 14 13 13 13 12 11 9 8 7 5 3 3 4 3 5 8 8 6 6 7 7 6 5 4 3 4 3 4 2 3 4 4 2 2 2 2 1 3 3 3 3 3 5 4 5 6 5 3 5 8 6 5 6 6 5 3 2 1 2 4 2 4 5 5 5 6 17 26 28
16 14 13 13 13 13 12 11 9 8 8 7 8 9 10 11 11 12 12 13 13 13 13 12 11 9 8 6 3 3 3 3 1 4 10 10 6 7 7 7 6 5 4 4 4 4 4 1 1 3 4 2 1 2 2 1 1 2 4 2 5 6 4 4 4 3 5 6 10 6 4 3 4 5 3 4 5 2 5 4 1 1 3 3 6 14 22 23
16 14 13 14 14 13 12 10 9 8 8 8 8 9 10 11 11 11 11 12 13 13 13 12 11 9 7 5 3 5 4 3 1 5 9 10 8 8 8 7 6 4 5 5 5 3 1 1 2 3 4 2 3 3 1 1 1 2 4 4 6 3 2 3 2 2 3 5 9 7 5 2 3 3 3 7 6 3 6 7 7 9 9 9 7 12 18 20
15 13 14 15 14 13 12 10 9 8 7 7 7 8 10 11 10 10 11 11 12 12 12 12 10 8 6 5 5 6 5 3 3 5 9 10 9 9 7 6 5 5 6 6 5 3 1 2 4 4 4 1 2 3 1 2 2 3 1 4 5 3 2 3 3 2 1 5 6 8 6 4 2 2 4 10 7 5 7 8 11 11 12 15 13 15 16 16
16 13 13 14 14 13 12 10 9 8 7 6 7 8 10 11 11 10 10 10 11 12 12 11 9 8 6 5 7 6 5 2 3 6 10 11 10 8 7 6 6 5 6 6 5 3 2 3 5 3 2 2 2 2 2 2 3 3 2 2 2 3 3 2 3 3 3 8 6 6 4 3 4 1 4 9 8 7 7 8 11 9 13 19 17 16 14 14
17 15 12 13 15 14 12 10 9 8 7 6 6 7 10 11 11 10 10 10 11 12 11 10 8 7 6 6 6 3 2 3 3 9 12 11 9 8 7 6 6 6 7 6 4 4 4 5 4 4 4 3 3 3 2 1 5 5 2 2 1 1 3 1 1 3 5 8 4 4 4 4 5 2 2 4 8 8 7 3 4 8 15 17 14 14 15 17
18 16 13 12 15 14 12 10 9 8 7 7 6 7 10 11 11 11 10 10 11 12 10 9 8 7 8 8 5 2 1 4 6 12 11 10 9 8 8 7 7 7 7 6 4 5 5 5 4 4 4 1 4 3 2 4 5 4 3 3 1 1 1 2 2 5 5 4 2 6 5 3 5 3 1 6 10 8 6 3 4 8 13 13 13 13 14 15
18 16 13 11 14 15 13 10 9 8 7 7 5 6 9 10 11 10 10 10 11 12 10 8 7 7 9 6 5 3 3 5 11 13 11 9 9 8 8 8 8 7 6 5 4 7 5 4 4 4 4 3 4 4 3 4 0 3 5 3 2 1 2 2 3 4 3 1 2 5 2 3 3 1 3 8 9 5 2 3 4 8 10 10 11 13 14 13
19 17 14 12 13 15 13 10 10 9 6 7 6 6 9 9 10 10 9 10 10 11 9 8 7 7 10 5 5 3 4 6 13 13 11 10 8 8 8 8 8 7 6 5 5 7 5 5 4 4 5 2 4 3 2 5 3 4 6 4 4 1 3 3 2 2 2 2 2 5 2 3 3 2 4 7 5 4 6 4 3 7 9 11 9 11 15 15
20 18 16 13 12 13 13 10 10 9 6 6 6 7 9 9 9 9 9 9 9 9 8 7 7 7 8 5 5 4 3 8 13 12 10 9 7 7 8 8 7 6 7 6 6 7 5 7 6 5 2 2 3 2 1 3 4 6 8 5 6 5 4 3 2 2 2 1 1 5 1 3 3 2 6 6 1 5 7 7 6 6 8 9 9 9 11 14
20 19 17 15 12 11 12 11 9 9 7 7 8 8 8 8 8 8 8 8 8 7 7 6 7 8 5 3 3 5 3 9 13 11 9 8 7 7 7 7 6 5 7 6 6 6 5 6 7 5 1 3 4 2 2 3 6 6 7 6 5 8 4 2 1 2 1 1 2 3 2 4 1 6 10 4 1 5 7 8 7 7 7 7 8 7 8 13
20 19 17 15 12 10 11 11 9 9 9 8 9 8 8 8 8 8 7 6 7 7 7 6 7 8 4 1 3 4 5 10 12 10 8 8 8 7 7 7 5 3 4 5 7 7 4 3 6 6 3 5 3 1 3 4 5 4 4 5 2 6 4 5 1 1 2 1 3 3 1 6 6 10 10 5 1 5 6 8 7 7 7 6 7 6 7 12
20 19 18 16 13 11 10 10 9 9 9 9 9 9 8 8 8 8 7 6 7 8 7 6 7 6 2 1 3 3 7 11 12 10 9 9 9 8 7 6 5 4 3 5 7 6 4 4 7 6 3 4 3 2 4 5 4 3 2 3 3 2 3 7 2 3 4 0 4 6 2 7 8 10 9 7 4 7 7 8 7 7 7 6 7 7 8 10
21 19 18 16 14 12 11 11 10 9 10 10 10 9 7 6 6 6 8 8 8 8 8 7 8 6 1 2 2 4 8 10 11 10 9 10 8 7 6 7 6 6 6 6 7 5 4 6 6 5 1 2 4 6 4 3 3 3 2 2 3 3 4 8 2 5 6 1 4 7 2 6 8 10 8 5 1 7 7 8 7 7 8 8 7 7 8 9
21 19 17 15 14 13 12 11 10 10 10 10 10 9 6 6 7 8 10 10 9 9 8 6 7 6 2 1 1 4 7 7 10 11 9 9 7 6 7 8 6 7 7 6 6 5 5 6 4 2 3 3 5 6 4 3 3 3 3 2 2 2 2 4 2 3 4 1 2 3 2 4 5 7 7 5 3 4 5 8 8 8 8 8 7 8 8 8
23 20 17 15 14 14 13 12 11 12 10 10 10 8 7 7 8 9 10 10 9 8 6 3 5 4 1 1 2 3 4 7 11 11 9 7 7 8 8 5 4 5 5 5 5 4 5 5 2 0 3 4 3 5 5 1 3 2 2 1 3 3 3 2 3 4 1 3 2 1 3 6 7 7 8 7 3 1 5 8 9 9 8 8 8 8 7 8
24 20 17 15 15 14 13 12 12 13 11 10 9 8 8 8 9 9 10 11 9 6 3 1 3 3 2 2 3 3 5 9 11 11 9 7 7 8 5 3 4 5 5 4 3 3 3 4 2 1 3 3 2 5 5 4 5 5 3 3 2 2 3 3 3 3 2 3 2 2 3 10 12 11 11 9 2 3 8 9 9 10 10 9 8 8 8 8
24 21 17 15 14 13 12 12 12 13 11 11 10 11 11 9 8 7 8 8 6 4 2 2 4 4 4 4 3 3 7 11 11 9 8 7 7 6 4 5 5 5 4 2 2 1 2 3 4 3 2 3 5 6 6 7 8 9 6 5 5 3 3 5 4 4 3 4 3 5 6 9 11 11 11 11 5 5 9 9 9 10 10 10 8 8 8 8
25 22 18 15 15 14 12 12 12 10 12 13 12 11 8 6 5 3 1 1 3 3 2 4 5 3 1 1 4 9 10 8 6 6 7 6 7 7 4 5 6 6 3 4 2 0 4 4 3 5 7 6 7 7 6 5 6 8 6 5 4 4 2 4 3 5 1 3 5 6 6 9 10 12 12 11 8 6 9 10 10 11 11 11 9 9 9 10
25 23 19 16 15 14 13 12 11 11 13 12 12 6 4 6 4 3 2 3 6 3 1 1 4 2 1 4 9 11 7 4 2 2 6 6 6 7 1 3 5 4 0 3 3 2 5 5 6 7 9 7 6 6 6 6 5 6 6 5 2 3 2 3 2 4 3 1 4 2 3 10 10 11 12 10 9 10 13 12 13 14 13 11 9 9 9 8
26 24 20 17 15 15 14 11 10 13 12 11 10 4 3 5 6 10 8 1 6 3 1 0 3 3 2 6 10 5 5 4 1 1 5 4 4 5 1 4 6 3 1 3 3 4 4 3 9 8 6 5 5 5 7 6 5 5 4 5 3 2 1 3 3 5 4 1 3 4 4 11 11 11 12 12 11 13 12 10 11 12 12 13 10 9 8 7
26 25 21 17 15 15 12 11 12 13 13 13 9 5 4 5 10 15 10 4 3 1 1 1 2 2 2 3 6 3 4 4 4 4 5 5 2 3 4 5 5 5 3 4 5 5 2 5 8 5 5 8 6 4 8 7 4 4 4 4 2 2 1 1 4 4 3 1 2 4 5 10 9 7 10 12 10 11 10 8 10 10 12 15 10 5 7 8
26 24 21 17 16 14 12 12 13 12 15 14 12 10 9 8 13 15 5 3 3 1 1 2 2 4 3 3 6 5 3 3 5 6 7 7 4 2 5 5 5 5 3 6 8 7 4 6 2 5 5 7 7 4 6 7 2 1 3 5 3 3 4 3 2 2 3 4 3 4 5 7 5 5 8 7 4 7 7 6 10 11 11 12 8 4 7 8
26 23 20 18 16 14 14 14 13 14 14 12 14 14 11 8 12 12 4 3 2 2 2 2 1 4 6 4 5 6 3 1 1 4 8 8 6 4 3 2 4 4 5 6 8 5 4 5 3 7 5 6 7 4 4 7 2 2 2 5 7 7 6 2 2 4 4 4 3 4 4 6 5 5 7 6 5 6 6 6 10 11 7 6 7 7 7 7
26 23 21 19 16 18 16 10 12 15 10 11 16 14 9 7 11 10 4 4 2 2 1 3 2 6 9 5 4 4 3 1 2 2 7 7 3 3 3 1 2 4 6 6 4 3 2 2 4 6 5 6 6 3 3 6 5 1 4 5 7 7 7 4 3 3 1 3 3 4 2 5 7 5 9 8 8 10 8 8 11 12 7 4 6 7 6 6
25 23 22 19 19 23 16 6 13 16 6 9 15 14 8 7 10 7 5 5 3 2 5 2 0 7 9 5 6 6 3 4 2 3 3 4 1 3 4 4 2 2 4 4 2 2 2 3 5 6 6 6 5 2 4 6 7 3 3 6 7 7 7 5 6 3 1 3 4 4 4 3 6 6 8 7 8 11 11 11 13 11 7 6 6 7 6 5
26 24 22 19 23 26 13 7 18 17 5 6 14 14 9 10 10 4 5 3 3 2 5 2 1 6 5 2 5 5 3 4 5 1 1 3 1 3 3 6 6 5 2 5 4 4 2 4 4 6 6 3 4 4 5 7 6 4 4 7 6 7 7 5 6 3 2 2 5 4 2 2 6 7 5 3 3 9 11 12 13 9 7 7 7 8 7 5
25 24 22 21 26 24 9 7 21 18 8 9 15 13 10 10 8 4 4 3 1 2 2 2 3 3 2 3 3 2 1 2 3 3 1 3 1 3 3 5 6 7 3 4 6 3 1 4 6 7 5 4 4 3 4 5 4 3 5 7 5 6 6 5 5 3 3 2 5 5 4 2 5 6 5 3 1 7 10 9 9 7 7 7 7 7 6 4
26 24 24 24 27 24 10 8 20 18 9 11 15 13 11 8 4 4 3 4 2 1 1 2 4 3 6 7 1 0 2 2 0 2 3 1 2 5 2 3 6 7 5 6 4 1 2 1 2 4 3 5 4 2 1 3 5 6 6 7 7 6 5 4 3 4 3 3 7 7 5 1 4 6 4 3 4 6 6 7 8 7 7 6 4 4 3 2
26 25 25 25 28 25 11 6 17 16 9 13 16 12 8 4 3 5 5 4 2 2 1 2 3 4 11 13 5 1 3 2 1 6 4 1 2 3 2 2 4 5 4 4 3 4 4 3 0 1 1 4 6 5 4 3 4 6 5 5 4 4 4 4 4 4 1 5 6 5 1 1 3 6 5 6 7 6 6 6 7 6 7 7 2 1 2 3
27 25 25 25 26 24 10 5 16 16 9 14 14 7 5 4 2 5 4 3 3 3 5 5 5 6 11 11 6 4 4 2 2 6 6 4 3 4 4 5 5 3 1 3 1 2 2 1 2 3 1 4 6 5 4 6 5 5 5 6 4 2 3 2 3 0 3 6 4 3 1 2 5 7 7 9 10 8 7 8 7 6 5 6 2 4 3 3
27 25 25 25 24 22 11 7 15 13 9 13 10 4 4 5 6 8 5 3 3 3 5 6 4 6 10 8 5 5 4 2 3 3 3 4 5 5 3 3 5 5 3 5 3 2 1 4 3 1 2 2 6 6 3 1 1 4 5 6 5 3 2 3 3 2 4 4 3 3 1 3 4 5 8 11 11 8 6 7 8 7 6 5 3 5 4 4
28 25 26 25 23 20 12 8 13 13 10 10 6 4 5 6 7 9 8 5 2 2 3 5 7 8 8 7 5 6 3 1 4 5 3 4 5 6 5 4 3 5 4 4 3 5 4 4 3 4 2 3 6 5 6 6 4 4 4 5 6 5 5 4 4 3 4 3 3 3 1 4 3 3 7 9 9 8 6 7 6 6 6 3 1 3 4 5
28 27 26 24 23 20 14 9 10 12 10 7 5 6 8 8 7 8 8 5 2 2 3 4 9 9 6 2 1 6 4 1 4 4 4 6 6 7 6 6 6 4 6 5 2 2 4 5 5 2 1 6 7 3 4 7 2 2 3 5 3 5 5 2 3 5 4 1 2 2 3 5 4 6 8 6 7 8 7 6 5 8 6 1 2 3 5 6
30 28 24 22 23 22 20 12 8 11 9 5 6 7 8 9 6 5 6 5 4 6 7 5 4 6 6 2 2 7 2 3 5 4 4 4 3 6 7 6 8 7 6 7 3 2 3 4 5 3 2 3 5 3 3 3 3 2 3 3 5 4 7 4 1 0 3 1 3 2 4 5 3 7 9 5 5 7 8 7 7 8 5 4 4 5 5 7
31 26 19 19 23 22 22 17 8 9 7 4 7 9 7 8 4 4 5 5 6 8 10 5 2 5 7 4 5 8 3 2 4 4 4 3 2 6 7 4 6 10 8 5 3 4 5 1 4 1 1 2 1 3 2 2 4 5 3 6 3 2 4 4 2 2 3 3 5 1 5 6 2 5 7 5 1 6 8 7 8 9 6 4 5 6 7 8
24 19 14 17 24 21 20 19 11 6 4 3 9 9 5 5 2 4 6 7 8 8 7 6 3 4 7 7 6 8 7 4 5 4 4 4 4 6 9 5 5 10 10 5 2 3 5 3 4 1 2 4 4 2 1 3 3 5 4 4 4 2 1 2 3 2 1 3 4 4 5 5 4 5 5 2 4 7 9 8 8 10 9 8 5 4 7 8
13 9 5 15 25 21 19 18 10 5 3 5 10 9 4 4 2 0 6 8 7 6 6 5 3 3 6 7 6 7 7 6 8 6 4 5 5 6 10 8 4 9 11 6 4 3 4 4 3 2 1 2 4 1 4 1 2 3 1 2 3 2 4 3 3 3 4 3 3 4 5 4 6 6 6 8 9 8 8 8 8 10 10 9 6 4 6 8
6 2 1 14 27 25 21 15 6 4 4 7 10 6 1 3 2 3 5 6 4 4 5 4 4 5 5 5 5 6 6 5 8 7 5 6 5 5 9 9 6 8 9 5 4 3 2 3 4 2 3 1 2 3 7 8 5 3 3 4 3 1 2 2 1 3 4 4 3 2 4 6 6 4 8 10 9 8 9 8 8 9 8 8 7 6 6 7
2 0 1 15 30 30 22 10 3 4 5 6 8 4 1 1 3 4 4 2 1 2 4 5 6 6 6 5 5 6 5 4 7 7 4 6 7 6 7 9 8 8 7 4 4 4 3 3 4 2 1 4 5 4 5 9 8 7 6 8 7 5 4 3 3 1 2 3 4 3 5 8 5 4 6 7 6 7 7 7 6 7 7 7 7 6 5 6
2 1 3 18 35 33 19 6 2 3 4 5 4 2 1 1 1 3 3 1 1 0 2 4 6 5 6 7 6 7 7 5 6 7 5 8 10 7 7 7 10 12 10 8 8 5 4 4 5 3 4 5 6 5 3 6 4 3 3 5 6 5 5 6 5 4 1 2 3 4 2 7 4 4 5 5 6 6 5 6 5 6 6 5 6 6 5 6
4 2 3 20 36 28 11 4 3 3 5 3 2 1 2 2 1 1 1 2 2 1 1 2 4 4 4 5 6 8 9 6 7 9 6 7 9 7 6 8 11 13 10 7 7 3 3 4 4 0 3 3 5 5 2 0 1 2 3 2 4 4 4 6 5 4 3 4 3 3 3 6 4 3 4 4 4 3 3 5 5 2 5 4 5 5 3 3
3 1 0 18 35 24 6 3 6 9 9 3 3 2 1 2 1 1 1 1 1 1 3 2 3 4 4 4 6 10 11 6 6 9 7 5 6 4 6 10 11 11 8 7 7 6 4 4 4 3 1 3 4 4 3 2 2 3 3 3 5 6 6 4 2 3 2 6 7 5 6 6 3 5 3 3 4 1 3 5 3 2 3 5 5 5 5 5
2 2 2 8 21 16 5 2 5 9 10 5 4 7 3 0 1 2 2 1 1 1 3 2 2 4 4 4 5 7 11 7 4 6 5 3 4 3 6 12 12 10 8 7 8 8 6 5 5 6 7 6 6 6 5 4 3 2 4 6 8 9 10 6 3 3 6 6 8 8 9 5 2 6 5 5 5 2 5 5 2 1 2 4 4 3 4 4
1 2 1 1 4 3 1 2 4 4 6 8 6 7 8 6 2 1 2 2 1 2 1 2 1 3 4 5 5 5 10 9 3 4 7 6 3 3 4 10 12 11 7 7 9 7 3 3 7 10 12 12 12 9 5 9 7 6 8 10 10 11 12 9 4 6 8 3 4 10 12 9 9 7 6 6 4 4 6 4 3 4 4 5 5 4 4 4
1 1 3 2 1 1 0 1 6 6 5 9 7 5 12 12 5 1 2 3 2 2 1 1 0 4 5 7 7 5 9 10 4 4 7 8 4 2 0 4 9 10 7 8 8 6 4 4 9 12 14 14 11 7 8 12 13 14 13 11 11 12 13 12 10 12 9 4 5 13 9 9 16 12 10 12 8 6 8 6 4 5 5 5 5 5 6 6
1 1 1 2 1 3 2 2 8 8 7 9 5 3 11 15 9 6 4 2 2 1 2 2 2 6 8 8 7 5 6 7 6 5 6 5 3 0 2 1 3 4 5 5 5 4 5 6 8 9 13 15 8 5 9 12 12 13 14 14 14 15 15 16 18 18 11 7 12 16 10 12 18 14 12 14 10 8 9 7 5 5 5 6 6 7 8 8
1 1 1 0 1 4 4 4 7 8 8 10 5 3 9 13 14 12 5 3 2 3 3 5 7 8 8 6 7 7 7 8 8 7 5 5 5 3 3 1 1 1 4 5 3 3 4 5 6 8 11 14 9 7 10 12 10 9 12 15 16 17 19 21 21 21 15 12 15 16 13 15 16 11 11 11 9 9 6 4 4 5 7 6 5 6 6 6
1 1 1 1 0 3 4 5 8 8 7 8 6 5 7 10 14 14 7 5 7 6 5 9 11 7 5 5 5 7 9 10 11 10 8 7 5 4 4 5 3 2 3 5 3 2 3 4 4 6 5 10 10 8 9 10 10 10 11 13 15 17 19 20 18 15 12 11 15 14 14 16 10 6 8 7 6 7 5 4 6 7 5 2 3 3 4 5
2 3 2 1 1 3 4 5 7 6 4 6 6 5 7 11 12 10 7 8 9 8 9 15 14 5 1 4 5 6 7 6 7 8 10 11 9 8 6 6 7 7 6 6 4 4 5 3 1 5 4 8 9 8 9 7 6 7 10 13 16 15 15 14 13 11 11 12 14 12 12 14 7 6 7 5 7 8 7 7 8 4 1 4 5 2 3 5
3 4 2 1 2 1 3 3 6 5 3 5 7 6 7 8 7 7 5 5 9 10 8 11 11 6 4 6 7 6 4 5 3 2 4 4 3 4 3 4 8 11 10 8 4 4 7 5 2 5 6 8 7 6 9 7 3 7 12 16 16 14 11 9 9 13 15 14 12 11 13 14 8 6 7 5 8 8 6 5 4 1 5 6 6 5 4 4
Wind_Direction
190 185 182 182 182 181 179 181 177 175 179 180 184 186 187 188 191 193 198 202 200 198 195 199 206 214 220 226 232 230 228 220 212 205 205 208 201 206 212 213 226 228 222 198 170 162 129 38 1 45 95 81 25 48 4 10 71 52 84 104 167 188 194 181 184 198 176 170 191 206 165 136 158 206 174 56 54 78 69 38 14 14 22 18 352 148 156 163
190 186 182 180 182 180 178 181 179 180 180 181 187 187 189 191 195 197 200 201 198 198 197 200 205 211 221 227 228 220 219 210 214 238 218 204 202 208 208 207 215 217 208 185 173 138 109 50 359 50 70 58 348 17 19 353 84 88 110 102 213 208 195 189 198 206 189 170 170 180 165 156 176 170 135 123 146 117 104 18 1 25 19 37 101 139 152 162
194 193 185 180 182 182 181 183 181 181 184 188 188 188 195 196 196 199 200 199 198 199 199 201 204 210 220 220 216 198 186 170 211 258 220 208 210 204 200 204 209 209 199 181 170 137 125 124 19 76 66 61 339 39 77 17 89 154 111 94 232 217 203 204 195 213 243 186 153 163 165 177 209 167 143 153 163 174 171 196 133 224 231 147 143 149 154 163
197 199 189 182 183 186 185 183 182 180 187 194 188 192 200 199 197 199 200 199 199 199 200 201 203 209 216 212 195 183 150 96 253 230 206 205 202 193 193 198 197 199 198 184 170 169 185 62 89 108 80 59 334 35 132 269 190 142 108 169 222 190 165 228 213 264 270 173 154 149 133 188 235 174 151 143 142 247 235 212 195 202 193 170 178 171 164 169
197 199 193 185 183 189 188 183 186 182 187 195 193 199 200 201 202 200 201 202 201 199 199 199 203 207 208 197 181 178 135 89 241 200 186 190 185 184 185 189 189 194 196 185 180 182 195 80 78 80 75 100 5 44 216 243 115 77 2 204 207 154 152 269 291 329 73 110 125 130 142 187 179 147 153 148 160 226 229 213 207 199 174 171 178 177 175 177
199 199 195 188 183 189 191 186 189 185 190 197 197 205 201 201 205 204 203 202 202 202 199 197 200 201 198 185 180 179 146 157 223 164 172 175 172 179 178 187 189 191 191 183 186 154 107 75 73 92 81 102 139 142 200 272 75 98 282 270 237 191 157 270 336 353 104 111 126 148 167 148 112 233 176 163 194 224 225 207 209 204 170 170 169 170 178 185
200 199 199 193 185 188 194 192 193 191 194 200 202 207 203 203 206 210 207 201 204 204 200 197 195 194 183 170 170 156 140 233 208 160 167 168 169 175 172 187 186 190 188 174 170 138 109 85 99 141 99 88 162 166 164 37 49 96 193 285 291 170 124 241 3 40 98 121 158 154 125 137 152 197 136 196 230 240 256 247 197 178 156 159 161 174 187 190
199 200 203 199 189 189 197 197 197 198 200 201 208 210 205 206 209 211 209 203 203 203 204 198 191 185 174 165 149 84 342 239 183 164 167 165 168 169 172 181 176 186 185 180 175 150 133 113 151 160 108 174 170 147 135 81 42 85 173 223 313 10 35 316 38 56 72 101 116 113 117 201 197 178 145 235 242 242 255 10 78 137 142 157 170 185 194 195
200 202 204 204 195 192 197 199 200 204 207 203 210 216 207 210 212 211 209 207 203 202 204 197 191 180 176 166 115 113 233 196 168 167 167 165 168 169 177 177 173 182 179 192 186 154 153 157 187 182 157 196 143 136 145 115 227 178 156 170 133 344 319 9 55 42 43 46 64 124 127 294 252 265 269 242 237 222 176 72 89 130 144 175 183 189 193 199
203 205 205 208 203 198 198 199 202 203 206 207 212 219 210 211 213 211 209 209 207 202 200 197 191 173 178 165 102 158 227 169 167 170 167 165 166 172 181 179 177 190 183 177 172 157 159 177 179 151 142 135 115 122 138 143 187 157 121 112 87 39 326 26 83 350 10 24 52 151 179 315 312 318 265 263 255 155 137 151 173 151 167 189 190 197 198 202
204 204 204 207 210 211 206 203 207 203 201 211 217 219 211 209 210 210 209 209 208 201 199 198 186 175 180 151 126 192 215 166 172 170 166 167 167 176 179 178 178 187 182 162 172 172 156 168 147 115 134 137 117 72 71 141 124 126 116 80 14 358 335 15 96 306 350 62 90 128 148 318 1 317 232 256 285 154 164 185 199 189 194 198 198 204 202 210
203 203 204 208 215 221 217 214 223 219 211 215 220 216 206 206 207 208 208 206 204 197 198 192 178 178 166 109 161 203 177 167 174 168 169 169 164 175 168 172 176 173 179 167 179 175 146 162 131 110 201 141 122 91 152 122 102 125 106 85 348 0 351 307 127 303 24 110 292 92 359 297 222 233 237 258 44 159 178 200 212 213 215 210 209 213 211 219
203 203 204 208 215 220 221 223 238 236 219 219 224 215 204 204 203 203 203 197 189 187 192 184 176 178 158 119 206 200 175 172 174 169 166 160 154 162 157 160 161 149 184 179 173 161 139 169 135 127 137 110 127 179 128 79 90 129 80 92 35 17 340 283 322 351 114 83 346 80 278 276 247 244 253 293 312 149 178 216 222 224 229 226 221 221 224 226
201 204 205 208 213 218 225 229 243 241 225 226 222 210 206 199 196 197 186 176 175 175 178 172 173 176 168 229 215 193 185 175 173 166 156 153 146 146 138 135 139 129 156 158 148 141 127 137 118 108 100 102 139 121 66 34 55 108 80 67 65 99 271 295 325 119 144 350 38 90 209 267 272 270 274 292 242 169 193 228 225 230 237 235 232 228 232 231
201 202 204 207 211 217 226 231 242 242 230 228 214 203 204 191 188 183 167 166 165 166 167 166 173 162 106 277 245 174 175 171 172 167 156 155 145 137 132 126 126 121 127 130 125 119 119 126 99 85 90 35 82 91 57 21 25 54 106 326 349 154 254 307 294 154 157 248 55 96 219 271 278 277 280 303 182 170 208 236 236 235 235 234 236 231 235 242
201 201 204 208 212 217 223 229 240 242 232 224 209 196 184 170 170 162 161 161 156 159 153 156 182 164 117 243 157 150 167 171 172 168 161 160 153 142 136 128 118 117 122 113 111 107 90 90 67 88 124 65 82 99 71 42 356 2 100 196 257 156 251 311 298 220 173 174 30 111 210 270 282 274 284 324 64 147 224 251 255 245 241 236 232 233 234 246
201 200 204 207 213 216 219 229 240 242 231 211 199 181 160 154 153 152 154 150 147 150 135 133 183 173 99 114 124 173 184 174 172 169 160 159 157 146 134 118 98 103 105 89 97 90 51 51 45 172 74 72 104 101 84 65 262 289 55 165 219 168 176 265 285 282 124 138 229 163 207 254 270 279 289 308 28 109 245 253 258 252 249 243 235 239 236 239
200 200 202 206 212 214 222 233 242 246 225 191 175 149 134 129 128 133 139 136 124 113 89 26 129 160 249 199 178 194 171 165 168 165 160 157 154 146 125 100 97 84 68 55 56 53 29 27 57 81 41 60 129 109 129 205 196 187 181 159 209 187 181 230 250 240 125 122 210 171 226 257 268 279 283 284 260 206 246 249 254 254 250 247 241 241 239 240
200 200 200 205 209 215 228 233 245 246 207 165 150 132 114 102 102 116 130 130 119 111 195 217 144 158 217 206 183 127 135 150 156 160 159 154 152 143 101 87 86 78 84 74 32 31 72 55 65 114 158 175 180 159 169 198 172 167 174 148 156 167 217 241 255 259 152 128 224 211 221 251 262 273 279 280 265 213 247 256 257 259 256 250 241 237 240 241
200 198 195 202 208 216 224 227 242 229 179 158 155 136 116 110 95 99 136 167 196 171 198 197 166 151 170 168 131 118 121 128 140 163 162 160 153 136 85 54 46 50 97 143 150 84 88 109 166 186 195 191 186 177 155 154 142 137 125 111 147 158 220 259 273 305 92 139 250 231 235 256 259 267 270 277 292 273 257 255 253 253 253 250 241 234 233 236
197 193 192 201 209 214 214 223 231 197 171 171 173 158 157 160 132 162 186 300 250 233 344 191 142 111 56 129 141 134 118 85 45 156 163 167 147 139 100 33 71 63 114 159 142 25 67 134 208 218 206 189 175 165 124 104 91 96 121 115 111 157 207 266 251 305 3 137 271 320 284 267 258 263 267 269 280 269 250 245 250 251 254 256 245 234 232 244
193 191 191 198 207 208 208 217 204 177 175 186 195 232 223 167 141 156 146 116 249 237 21 322 61 38 45 136 158 140 79 85 68 242 188 162 127 154 156 69 117 151 173 116 96 33 49 188 230 228 195 136 109 129 112 99 90 82 108 120 131 192 241 305 297 314 11 106 273 359 335 277 264 256 260 255 249 254 249 237 244 251 256 260 252 237 236 254
191 190 188 195 202 198 201 200 179 173 185 193 207 230 187 149 145 150 133 99 214 239 79 201 91 91 72 146 191 154 85 131 163 228 210 153 132 169 137 104 129 141 125 131 131 120 121 242 240 209 143 108 89 107 108 93 79 88 109 126 186 233 167 260 291 314 3 55 275 340 318 280 282 279 265 257 248 261 269 254 245 242 243 254 258 236 224 238
187 186 185 190 190 188 191 180 170 186 197 203 223 209 159 138 154 157 129 74 166 238 259 219 152 157 164 168 187 160 120 149 162 192 191 157 145 146 148 142 128 127 157 155 138 145 199 253 217 112 101 111 109 102 118 121 69 26 133 140 179 200 162 189 281 326 359 9 9 2 325 287 307 323 285 285 300 281 286 288 264 250 243 256 278 257 221 228
183 182 181 182 182 180 173 165 177 196 196 212 225 197 153 136 159 164 125 69 176 305 316 240 196 187 184 150 168 172 136 119 190 193 180 164 148 134 166 154 123 158 178 141 128 151 230 262 138 111 75 84 112 125 154 147 121 313 219 171 171 163 152 158 10 34 30 347 334 25 354 292 312 319 281 293 317 290 311 329 283 266 258 260 275 261 235 238
181 180 175 176 178 168 159 167 195 189 184 217 209 181 159 145 154 163 110 57 264 279 158 186 155 180 181 154 167 153 110 217 284 142 155 165 162 116 143 150 88 170 170 137 131 164 229 350 87 123 108 84 99 138 194 142 115 240 230 167 148 128 119 121 79 62 76 256 293 53 104 266 303 293 262 274 286 281 300 311 282 275 286 277 263 259 245 245
179 177 173 176 176 165 158 171 181 172 177 224 199 176 173 152 148 161 81 47 281 205 149 187 11 168 174 173 165 136 160 211 100 77 134 153 214 58 117 182 134 152 166 124 128 217 172 78 69 93 92 91 109 160 204 135 116 224 225 132 131 120 122 126 101 95 227 251 318 18 124 238 293 267 256 276 287 289 290 277 265 267 284 292 279 274 266 245
176 173 174 180 178 172 170 161 163 170 196 197 179 174 165 151 154 142 84 97 251 149 146 207 152 152 155 146 136 119 202 187 119 197 309 96 179 45 102 193 167 142 129 122 172 251 158 144 158 122 90 114 173 214 200 123 104 238 195 127 131 125 128 118 98 98 359 7 315 317 123 208 271 270 293 340 282 278 274 260 261 275 292 291 282 275 274 258
174 173 176 175 176 177 183 171 168 178 200 169 165 171 156 149 154 94 87 172 203 94 141 149 139 147 126 118 110 79 49 58 119 214 356 82 132 44 127 190 147 119 48 95 164 228 98 182 189 138 122 181 200 246 204 132 103 190 140 100 75 74 83 78 93 107 37 7 261 241 174 200 269 277 310 13 222 254 266 268 271 283 284 274 272 277 285 275
173 173 173 169 176 182 181 183 179 177 184 167 160 165 153 145 138 112 166 211 153 127 142 144 174 162 137 141 148 278 120 49 78 114 43 67 26 26 117 149 99 100 33 38 101 245 323 266 188 117 146 186 155 100 162 149 132 132 101 66 45 31 38 45 60 79 57 291 258 230 189 174 291 277 255 218 210 226 258 288 288 290 295 283 283 300 297 247
174 173 174 172 179 183 176 188 186 173 163 164 160 160 149 102 81 140 190 216 125 117 105 153 198 147 154 163 169 192 106 51 159 137 127 157 50 41 119 117 72 76 44 39 40 331 359 37 318 298 167 136 100 69 31 14 80 101 85 79 63 350 10 20 1 43 91 255 266 269 243 132 246 259 253 248 251 241 236 255 267 282 298 291 286 68 255 237
176 174 176 177 180 185 186 189 183 170 156 164 160 152 131 102 165 192 202 187 158 187 172 178 204 175 168 163 149 158 127 91 174 150 146 150 153 175 174 174 153 102 165 181 114 344 25 52 292 315 253 140 105 78 31 0 26 78 95 101 96 338 8 353 311 18 225 247 272 302 298 202 237 249 257 263 265 254 228 227 236 232 256 271 205 157 212 241
178 175 176 179 183 189 186 166 178 174 158 163 154 86 93 136 196 210 204 187 192 189 159 156 160 154 156 150 155 167 126 136 187 154 144 143 160 202 231 204 149 118 182 180 126 120 300 308 310 17 292 191 138 133 132 263 146 133 142 133 134 134 124 250 268 282 258 259 292 313 270 246 274 263 244 250 259 256 238 243 245 220 229 270 232 178 205 242
177 174 177 183 187 187 169 147 175 178 160 159 148 99 133 173 206 204 200 209 204 103 112 136 121 125 156 163 184 177 120 172 181 137 132 134 148 203 232 236 164 98 113 146 148 164 182 275 226 171 225 188 171 179 157 148 156 175 159 135 151 161 160 203 215 212 244 276 297 308 278 200 213 258 238 237 261 276 264 257 262 253 255 304 323 178 185 226
175 175 178 185 192 191 176 154 165 176 165 149 149 157 173 196 210 200 195 197 179 84 59 111 121 134 173 164 238 198 153 169 182 138 156 168 173 192 194 206 196 134 124 157 197 163 160 249 253 261 233 162 171 210 128 111 110 232 126 106 175 189 145 139 188 178 178 310 290 255 238 212 209 277 273 260 282 292 286 286 300 285 269 114 130 197 198 224
173 176 178 184 196 198 193 185 164 170 166 134 159 183 198 208 197 179 183 162 146 128 102 87 100 137 173 151 208 217 175 117 163 155 188 197 200 196 190 202 194 173 158 157 170 166 150 267 289 344 355 159 163 181 132 132 180 174 142 181 217 181 117 110 234 101 89 254 268 217 250 284 327 292 289 306 290 286 301 305 292 275 248 167 188 211 219 231
172 176 178 185 197 200 199 202 186 166 155 134 185 196 207 217 183 130 159 142 136 136 124 136 165 145 168 173 192 206 190 110 160 173 197 200 234 201 194 225 195 183 188 158 158 196 157 223 302 57 170 270 194 134 61 37 134 129 178 214 195 113 84 106 192 353 42 247 271 252 245 280 317 276 308 3 222 255 283 281 264 266 265 251 231 202 213 229
170 171 176 189 196 195 195 201 194 162 126 138 205 216 209 217 201 127 148 134 132 140 138 164 171 141 172 182 188 190 179 171 180 185 181 193 242 201 172 204 208 189 199 177 161 210 147 158 309 28 174 296 357 108 49 354 94 133 185 186 118 130 189 108 159 193 154 232 276 291 272 262 212 229 294 324 201 227 255 257 256 264 267 275 269 214 226 239
167 160 179 194 194 188 183 187 179 141 123 168 208 226 198 188 267 202 154 141 134 143 158 181 169 133 175 177 166 175 186 185 175 181 185 186 237 218 174 187 200 187 196 176 158 195 149 164 257 314 239 313 15 136 197 212 59 65 91 116 98 142 175 164 161 166 168 197 251 302 312 269 227 212 207 222 222 219 237 253 259 261 262 272 275 229 229 237
166 138 185 188 187 181 169 166 152 133 167 195 207 225 155 149 252 259 178 156 144 149 166 187 167 146 167 171 158 170 187 180 167 184 208 187 212 243 198 190 180 176 183 166 154 169 137 173 210 305 342 228 197 213 189 171 158 151 161 177 186 116 115 159 170 125 139 164 194 272 289 263 249 209 187 210 228 221 224 235 245 257 262 265 257 225 218 229
141 74 187 177 176 169 154 147 162 170 188 221 218 226 358 120 182 219 216 176 141 141 141 156 162 154 155 161 172 175 165 161 175 188 213 200 205 233 212 184 158 147 144 151 198 182 156 168 164 152 271 204 224 248 192 185 183 172 184 197 188 162 132 158 237 239 124 160 176 183 261 267 250 201 192 208 226 231 231 225 240 266 263 257 260 244 228 234
148 209 191 173 170 161 149 152 200 174 201 227 209 177 66 99 146 226 234 179 165 148 103 138 161 160 160 167 173 167 157 162 184 187 210 214 207 218 217 176 151 151 153 176 202 180 119 110 127 166 221 214 238 264 212 209 213 168 204 207 179 167 146 153 206 234 164 211 175 131 264 274 246 192 198 219 236 257 255 213 221 277 276 262 274 273 248 241
174 202 180 175 172 165 151 159 167 191 224 209 125 88 53 77 70 300 255 198 199 187 124 160 173 170 177 172 157 162 169 175 189 194 209 220 219 222 201 166 152 156 162 177 192 173 98 112 127 230 305 310 304 315 3 97 189 210 241 185 153 179 158 150 182 181 167 207 166 116 253 263 270 246 229 251 266 281 264 207 187 290 327 317 301 308 313 291
156 131 146 179 179 176 173 169 171 198 210 162 119 189 39 55 148 175 178 217 240 155 158 182 185 180 174 147 148 173 181 177 198 207 204 209 230 222 166 167 164 163 177 189 180 179 189 170 131 111 332 332 336 322 297 254 196 204 222 182 169 169 138 122 130 119 207 221 169 167 241 243 273 299 301 331 336 319 255 251 186 113 5 342 340 347 343 340
127 144 336 189 181 180 197 192 175 201 202 176 186 206 197 85 217 167 134 166 317 136 170 221 203 170 156 138 137 174 186 182 181 203 208 216 253 255 176 178 178 183 200 189 162 165 183 182 154 160 191 209 212 220 221 198 169 194 215 193 186 176 163 167 158 156 228 224 162 192 240 229 272 322 335 344 345 312 278 291 289 271 320 323 333 322 298 305
114 167 224 223 178 172 212 158 161 204 199 179 193 207 198 210 250 132 139 193 228 151 163 294 240 163 157 151 145 170 200 207 170 158 197 205 220 268 199 180 188 201 193 150 145 147 143 186 193 195 204 208 212 214 161 131 151 203 212 191 188 192 185 179 166 192 214 189 162 223 239 241 256 277 290 288 288 271 272 271 257 264 267 258 251 256 274 294
184 175 180 170 130 155 320 195 188 197 186 180 189 193 195 205 214 149 177 215 210 162 182 307 177 195 188 163 161 180 200 209 188 150 196 204 205 295 278 168 199 205 171 146 160 139 109 207 212 208 220 224 220 208 157 150 175 200 202 189 189 196 188 185 204 215 199 144 229 237 221 237 255 247 240 252 245 242 260 251 244 268 269 262 276 310 334 336
218 8 158 142 120 174 193 211 198 192 176 183 190 177 197 203 199 193 204 192 173 172 197 214 228 221 206 176 172 181 181 196 208 199 197 191 175 48 34 51 231 199 145 152 188 143 131 213 214 200 225 238 225 165 165 178 188 199 200 193 192 193 188 195 214 220 196 175 235 241 208 216 247 245 235 240 229 223 238 231 230 262 273 282 311 339 341 337
199 336 291 312 105 176 177 162 182 193 183 179 188 193 195 201 205 208 195 119 183 219 189 213 230 223 215 197 188 188 176 185 211 217 193 172 174 158 129 148 276 148 130 150 197 174 160 216 212 185 218 242 229 176 181 192 193 202 207 200 194 194 195 201 213 219 209 204 231 245 238 236 245 242 235 234 219 217 224 206 216 245 262 287 331 346 334 334
124 21 307 305 119 167 167 152 171 196 191 178 195 205 190 198 208 212 198 161 193 203 186 213 226 217 206 200 198 212 202 191 207 212 182 167 188 186 175 188 178 124 152 169 184 205 202 220 197 158 197 248 237 202 190 196 197 205 216 214 206 203 204 208 214 216 210 221 238 248 258 260 250 210 220 221 186 187 184 186 224 244 260 314 34 356 333 353
262 333 351 321 280 173 171 160 164 185 195 190 199 186 187 208 208 203 209 209 210 206 197 212 221 218 179 189 202 239 233 202 219 221 190 184 194 192 194 196 168 156 176 189 176 172 191 218 110 128 177 242 237 202 182 188 208 223 231 227 215 210 211 209 211 207 198 210 230 239 252 258 239 187 207 181 147 174 196 214 236 261 38 100 111 104 33 30
246 307 323 313 308 205 182 164 162 174 189 199 201 179 183 206 187 170 201 235 231 228 217 208 204 191 201 218 217 228 205 159 174 222 188 181 161 150 169 190 173 166 170 178 175 162 175 183 161 155 195 240 237 173 149 149 182 239 238 226 213 211 212 204 214 221 208 201 209 219 237 246 227 196 214 184 165 193 209 228 249 79 94 109 112 103 70 41